Starlink 35292

operational
NORAD ID: 66322 Int'l Des: 2025-253 Owner: SPXS Country: US Constellation: starlink
NOTLE

关于 Starlink 35292

正在加载描述...

实时位置

正在加载3D地球...

即将过境

高度历史

Altitude vs Time

uPlot chart will show altitude changes over time

两行轨道根数

1 66322U 25253D 25355.31555746 .00061864 00000-0 14756-2 0 9992
2 66322 43.0019 296.3880 0001470 268.6647 91.4041 15.40712542 8249
Epoch: Dec 21, 2025 • Age: 15 hours

当前状态

高度 445.9 km
速度 7.65 km/s
星下点 34.15°N, 4.11°E
发射日期 Nov 6, 2025
运行时间 0.1 years
类型 internet

技术详情

分类 Payload
质量 575.00 kg
干质量 530.00 kg
总质量 575.00 kg
长度 0.30 m
直径 4.10 m
跨度 29.00 m
形状 Box + pan
制造商 SPXS
平台类型 Starlink V2MO
阶段状态 In Orbit
所有者/国家 SPXS/US

大型星座

Loading constellations...